Back to Top

Language: 

My Weather Underground Personal Weather Station Historical Data with Graphs...

Delerius Weather Station Historical Data
Daily Summary for August 23, 2017 Units:  Metric    English   Both
« Previous Day
Next Day »
Daily Weekly Monthly Yearly Custom
  High: Low: Average:
Temperature: 21.8 °C 13.5 °C 17.4 °C
Dew Point: 17.3 °C 11.6 °C 14.7 °C
Humidity: 96 % 62 % 85 %
Wind Speed: 16.1 km/h 0 km/h 7.4 km/h
Wind Gust: 29 km/h - -
Wind:- - SSW
Pressure: 1014.1 hPa 1010 hPa -
Precipitation: 7.62 mm    
Historical Graphs
 
 
Tabular Data for August 23, 2017
Time Temperature Dew Point Pressure Wind Wind Speed Wind Gust Humidity Rainfall Rate (Hourly) solar Conditions
00:03 17.8 °C 16.1 °C 1014.1 hPa SE 6.4 km/h 12.9 km/h 90 % 0 mm 0 W/m2
00:08 17.8 °C 16.1 °C 1014.1 hPa SE 6.4 km/h 12.9 km/h 90 % 0 mm 0 W/m2
00:13 17.8 °C 16.1 °C 1014.1 hPa SE 6.4 km/h 12.9 km/h 90 % 0 mm 0 W/m2
00:18 17.7 °C 16.1 °C 1014.1 hPa SE 6.4 km/h 12.9 km/h 90 % 0 mm 0 W/m2
00:23 17.7 °C 16.1 °C 1014.1 hPa SE 6.4 km/h 11.3 km/h 90 % 0 mm 0 W/m2
00:28 17.6 °C 16.1 °C 1014.1 hPa SE 6.4 km/h 12.9 km/h 91 % 0 mm 0 W/m2
00:33 17.6 °C 16.1 °C 1014.1 hPa SE 6.4 km/h 12.9 km/h 91 % 0 mm 0 W/m2
00:38 17.6 °C 16.1 °C 1014.1 hPa SE 4.8 km/h 12.9 km/h 91 % 0 mm 0 W/m2
00:43 17.6 °C 16.1 °C 1014.1 hPa SE 6.4 km/h 16.1 km/h 91 % 0 mm 0 W/m2
00:48 17.5 °C 16 °C 1014.1 hPa SE 9.7 km/h 16.1 km/h 91 % 0 mm 0 W/m2
00:54 17.5 °C 16 °C 1014.1 hPa SE 9.7 km/h 16.1 km/h 91 % 0 mm 0 W/m2
00:58 17.5 °C 16 °C 1014.1 hPa SE 9.7 km/h 20.9 km/h 91 % 0 mm 0 W/m2
01:03 17.4 °C 15.7 °C 1014.1 hPa SE 11.3 km/h 20.9 km/h 90 % 0 mm 0 W/m2
01:08 17.4 °C 15.7 °C 1014.1 hPa SE 9.7 km/h 14.5 km/h 90 % 0 mm 0 W/m2
01:13 17.4 °C 15.7 °C 1014.1 hPa SE 8 km/h 14.5 km/h 90 % 0 mm 0 W/m2
01:18 17.4 °C 15.9 °C 1014.1 hPa SE 6.4 km/h 14.5 km/h 91 % 0 mm 0 W/m2
01:23 17.3 °C 15.8 °C 1013.8 hPa SE 8 km/h 14.5 km/h 91 % 0 mm 0 W/m2
01:28 17.3 °C 15.8 °C 1013.8 hPa SE 8 km/h 17.7 km/h 91 % 0 mm 0 W/m2
01:33 17.2 °C 15.7 °C 1013.8 hPa SE 9.7 km/h 17.7 km/h 91 % 0 mm 0 W/m2
01:38 17.2 °C 15.7 °C 1013.8 hPa SE 11.3 km/h 17.7 km/h 91 % 0 mm 0 W/m2
01:43 17.1 °C 15.6 °C 1013.8 hPa SE 11.3 km/h 17.7 km/h 91 % 0 mm 0 W/m2
01:44 17.1 °C 15.6 °C 1013.8 hPa SE 11.3 km/h 17.7 km/h 91 % 0 mm 0 W/m2
01:49 17.1 °C 15.6 °C 1013.8 hPa SE 11.3 km/h 16.1 km/h 91 % 0 mm 0 W/m2
01:54 17.1 °C 15.6 °C 1013.8 hPa SSE 9.7 km/h 16.1 km/h 91 % 0 mm 0 W/m2
01:59 17 °C 15.5 °C 1013.4 hPa SSE 11.3 km/h 17.7 km/h 91 % 0 mm 0 W/m2
02:04 17 °C 15.5 °C 1013.4 hPa SE 9.7 km/h 17.7 km/h 91 % 0 mm 0 W/m2
02:09 16.9 °C 15.4 °C 1013.4 hPa SE 9.7 km/h 16.1 km/h 91 % 0 mm 0 W/m2
02:14 16.9 °C 15.4 °C 1013.4 hPa SE 9.7 km/h 16.1 km/h 91 % 0 mm 0 W/m2
02:19 16.8 °C 15.5 °C 1013.4 hPa SE 8 km/h 16.1 km/h 92 % 0 mm 0 W/m2
02:24 16.8 °C 15.3 °C 1013.1 hPa SE 9.7 km/h 14.5 km/h 91 % 0 mm 0 W/m2
02:29 16.7 °C 15.4 °C 1013.1 hPa SE 8 km/h 14.5 km/h 92 % 0 mm 0 W/m2
02:34 16.7 °C 15.4 °C 1013.1 hPa SE 8 km/h 14.5 km/h 92 % 0 mm 0 W/m2
02:39 16.6 °C 15.3 °C 1013.1 hPa SE 8 km/h 14.5 km/h 92 % 0 mm 0 W/m2
02:44 16.6 °C 15.3 °C 1013.1 hPa SE 8 km/h 14.5 km/h 92 % 0 mm 0 W/m2
02:49 16.5 °C 15.2 °C 1013.1 hPa SE 6.4 km/h 14.5 km/h 92 % 0 mm 0 W/m2
02:54 16.4 °C 15.1 °C 1013.1 hPa ESE 6.4 km/h 12.9 km/h 92 % 0 mm 0 W/m2
03:04 16.3 °C 15.2 °C 1012.8 hPa ESE 8 km/h 12.9 km/h 93 % 0 mm 0 W/m2
03:09 16.3 °C 15.2 °C 1012.8 hPa ESE 8 km/h 11.3 km/h 93 % 0 mm 0 W/m2
03:14 16.3 °C 15.2 °C 1012.8 hPa ESE 6.4 km/h 11.3 km/h 93 % 0 mm 0 W/m2
03:19 16.2 °C 15.1 °C 1012.8 hPa ESE 6.4 km/h 11.3 km/h 93 % 0 mm 0 W/m2
03:24 16.2 °C 15.1 °C 1012.8 hPa ESE 6.4 km/h 12.9 km/h 93 % 0 mm 0 W/m2
03:29 16.2 °C 15.1 °C 1012.4 hPa East 6.4 km/h 12.9 km/h 93 % 0 mm 0 W/m2
03:34 16.2 °C 15.1 °C 1012.4 hPa East 4.8 km/h 11.3 km/h 93 % 0 mm 0 W/m2
03:39 16.2 °C 15.1 °C 1012.4 hPa East 3.2 km/h 11.3 km/h 93 % 0 mm 0 W/m2
03:44 16.1 °C 14.9 °C 1012.4 hPa ESE 3.2 km/h 8 km/h 93 % 0 mm 0 W/m2
03:49 16.1 °C 14.9 °C 1012.4 hPa ESE 4.8 km/h 9.7 km/h 93 % 0 mm 0 W/m2
03:54 16.1 °C 15.1 °C 1012.4 hPa ESE 6.4 km/h 11.3 km/h 94 % 0 mm 0 W/m2
03:59 16.1 °C 15.1 °C 1012.1 hPa SE 8 km/h 14.5 km/h 94 % 0 mm 0 W/m2
04:04 16.1 °C 15.1 °C 1012.4 hPa SE 8 km/h 14.5 km/h 94 % 0 mm 0 W/m2
04:09 16 °C 15.1 °C 1012.4 hPa ESE 8 km/h 14.5 km/h 94 % 0 mm 0 W/m2
04:14 16 °C 15.1 °C 1012.1 hPa ESE 6.4 km/h 12.9 km/h 94 % 0 mm 0 W/m2
04:19 16 °C 15.1 °C 1012.4 hPa SE 6.4 km/h 12.9 km/h 94 % 0 mm 0 W/m2
04:23 16 °C 15.1 °C 1012.1 hPa SE 4.8 km/h 12.9 km/h 94 % 0 mm 0 W/m2
04:28 16 °C 15.1 °C 1012.1 hPa SE 6.4 km/h 11.3 km/h 94 % 0 mm 0 W/m2
04:33 15.9 °C 14.9 °C 1012.1 hPa SE 8 km/h 12.9 km/h 94 % 0 mm 0 W/m2
04:38 15.9 °C 14.9 °C 1011.7 hPa SE 9.7 km/h 14.5 km/h 94 % 0 mm 0 W/m2
04:43 15.9 °C 14.9 °C 1011.7 hPa SE 9.7 km/h 16.1 km/h 94 % 0 mm 0 W/m2
04:48 15.9 °C 14.9 °C 1011.7 hPa SE 9.7 km/h 16.1 km/h 94 % 0 mm 0 W/m2
04:53 15.9 °C 14.9 °C 1011.7 hPa SE 8 km/h 16.1 km/h 94 % 0 mm 0 W/m2
04:58 15.9 °C 14.9 °C 1011.7 hPa ESE 6.4 km/h 12.9 km/h 94 % 0 mm 0 W/m2
04:59 15.9 °C 14.9 °C 1011.7 hPa ESE 6.4 km/h 12.9 km/h 94 % 0 mm 0 W/m2
05:04 15.9 °C 14.9 °C 1011.7 hPa ESE 4.8 km/h 11.3 km/h 94 % 0 mm 0 W/m2
05:09 15.9 °C 14.9 °C 1011.7 hPa ESE 4.8 km/h 11.3 km/h 94 % 0 mm 0 W/m2
05:14 15.9 °C 14.9 °C 1011.7 hPa ESE 6.4 km/h 11.3 km/h 94 % 0 mm 0 W/m2
05:19 15.9 °C 14.9 °C 1011.4 hPa ESE 6.4 km/h 12.9 km/h 94 % 0 mm 0 W/m2
05:24 15.8 °C 14.8 °C 1011.4 hPa ESE 8 km/h 14.5 km/h 94 % 0 mm 0 W/m2
05:29 15.8 °C 14.8 °C 1011.4 hPa ESE 8 km/h 14.5 km/h 94 % 0 mm 0 W/m2
05:34 15.8 °C 14.8 °C 1011.4 hPa ESE 9.7 km/h 16.1 km/h 94 % 0 mm 0 W/m2
05:39 15.7 °C 14.7 °C 1011.4 hPa ESE 9.7 km/h 16.1 km/h 94 % 0 mm 0 W/m2
05:41 15.7 °C 14.7 °C 1011.4 hPa ESE 9.7 km/h 16.1 km/h 94 % 0 mm 0 W/m2
05:46 15.7 °C 14.7 °C 1011.4 hPa ESE 9.7 km/h 16.1 km/h 94 % 0 mm 0 W/m2
05:51 15.7 °C 14.7 °C 1011.4 hPa ESE 6.4 km/h 12.9 km/h 94 % 0 mm 0 W/m2
05:56 15.7 °C 14.7 °C 1011.4 hPa ESE 3.2 km/h 9.7 km/h 94 % 0 mm 0 W/m2
06:01 15.6 °C 14.6 °C 1011.4 hPa ESE 3.2 km/h 11.3 km/h 94 % 0 mm 0 W/m2
06:06 15.6 °C 14.6 °C 1011.4 hPa ESE 6.4 km/h 14.5 km/h 94 % 0 mm 0 W/m2
06:11 15.6 °C 14.6 °C 1011.4 hPa SE 6.4 km/h 14.5 km/h 94 % 0 mm 0 W/m2
06:16 15.7 °C 14.7 °C 1011.4 hPa SE 6.4 km/h 12.9 km/h 94 % 0 mm 5 W/m2
06:17 15.6 °C 14.6 °C 1011.4 hPa SE 6.4 km/h 12.9 km/h 94 % 0 mm 5 W/m2
06:22 15.6 °C 14.6 °C 1011.4 hPa SE 8 km/h 14.5 km/h 94 % 0 mm 5 W/m2
06:27 15.6 °C 14.6 °C 1011.4 hPa SE 6.4 km/h 14.5 km/h 94 % 0 mm 7 W/m2
06:32 15.6 °C 14.6 °C 1011.4 hPa SE 4.8 km/h 9.7 km/h 94 % 0 mm 7 W/m2
06:37 15.6 °C 14.6 °C 1011.4 hPa SE 4.8 km/h 9.7 km/h 94 % 0 mm 12 W/m2
06:42 15.6 °C 14.6 °C 1011.1 hPa SE 6.4 km/h 9.7 km/h 94 % 0 mm 19 W/m2
06:47 15.6 °C 14.6 °C 1011.4 hPa SE 6.4 km/h 11.3 km/h 94 % 0 mm 19 W/m2
06:52 15.6 °C 14.8 °C 1011.4 hPa SE 4.8 km/h 11.3 km/h 95 % 0 mm 25 W/m2
06:57 15.6 °C 14.6 °C 1011.4 hPa SSE 4.8 km/h 11.3 km/h 94 % 0 mm 23 W/m2
07:02 15.6 °C 14.8 °C 1011.4 hPa SE 4.8 km/h 11.3 km/h 95 % 0 mm 35 W/m2
07:07 15.6 °C 14.8 °C 1011.1 hPa SE 3.2 km/h 8 km/h 95 % 0 mm 70 W/m2
07:12 15.6 °C 14.8 °C 1011.4 hPa SE 3.2 km/h 9.7 km/h 95 % 0 mm 65 W/m2
07:17 15.7 °C 14.9 °C 1011.1 hPa SE 3.2 km/h 9.7 km/h 95 % 0 mm 74 W/m2
07:22 15.7 °C 14.9 °C 1011.1 hPa SE 3.2 km/h 8 km/h 95 % 0 mm 98 W/m2
07:27 15.7 °C 14.9 °C 1011.1 hPa SSE 4.8 km/h 9.7 km/h 95 % 0 mm 91 W/m2
07:32 15.8 °C 15 °C 1011.1 hPa SSE 6.4 km/h 14.5 km/h 95 % 0 mm 69 W/m2
07:37 15.8 °C 14.8 °C 1011.1 hPa SE 6.4 km/h 14.5 km/h 94 % 0 mm 67 W/m2
07:42 15.8 °C 14.8 °C 1011.1 hPa SE 6.4 km/h 11.3 km/h 94 % 0 mm 60 W/m2
07:47 15.9 °C 14.9 °C 1011.1 hPa SE 4.8 km/h 9.7 km/h 94 % 0 mm 67 W/m2
07:52 15.9 °C 14.9 °C 1010.7 hPa SE 4.8 km/h 12.9 km/h 94 % 0 mm 127 W/m2
07:57 15.9 °C 14.9 °C 1010.7 hPa SE 3.2 km/h 12.9 km/h 94 % 0 mm 142 W/m2
08:02 16.1 °C 15.1 °C 1010.7 hPa ESE 1.6 km/h 8 km/h 94 % 0 mm 171 W/m2
08:07 16.2 °C 15.2 °C 1010.7 hPa SE 1.6 km/h 8 km/h 94 % 0 mm 153 W/m2
08:12 16.2 °C 15.1 °C 1010.7 hPa SE 3.2 km/h 8 km/h 93 % 0 mm 104 W/m2
08:17 16.3 °C 15.3 °C 1010.7 hPa SE 1.6 km/h 8 km/h 94 % 0 mm 111 W/m2
08:22 16.4 °C 15.3 °C 1010.7 hPa SE 3.2 km/h 8 km/h 93 % 0 mm 70 W/m2
08:28 16.4 °C 15.3 °C 1010.7 hPa SE 4.8 km/h 9.7 km/h 93 % 0 mm 91 W/m2
08:33 16.5 °C 15.4 °C 1010.7 hPa SE 4.8 km/h 11.3 km/h 93 % 0 mm 81 W/m2
08:38 16.6 °C 15.4 °C 1010.7 hPa SE 6.4 km/h 11.3 km/h 93 % 0 mm 77 W/m2
08:43 16.6 °C 15.3 °C 1010.7 hPa SE 6.4 km/h 11.3 km/h 92 % 0 mm 72 W/m2
08:48 16.6 °C 15.3 °C 1010.7 hPa SE 4.8 km/h 11.3 km/h 92 % 0 mm 30 W/m2
08:53 16.6 °C 15.3 °C 1010.7 hPa SE 6.4 km/h 12.9 km/h 92 % 0 mm 33 W/m2
08:58 16.6 °C 15.3 °C 1010.7 hPa SE 6.4 km/h 12.9 km/h 92 % 0 mm 33 W/m2
09:03 16.6 °C 15.3 °C 1010.4 hPa SE 4.8 km/h 9.7 km/h 92 % 0 mm 54 W/m2
09:08 16.6 °C 15.3 °C 1010.4 hPa SE 4.8 km/h 8 km/h 92 % 0 mm 67 W/m2
09:13 16.7 °C 15.4 °C 1010.4 hPa ESE 3.2 km/h 8 km/h 92 % 0 mm 37 W/m2
09:18 16.7 °C 15.4 °C 1010.4 hPa ESE 3.2 km/h 9.7 km/h 92 % 0 mm 18 W/m2
09:23 16.7 °C 15.4 °C 1010.7 hPa SSE 6.4 km/h 12.9 km/h 92 % 0 mm 19 W/m2
09:28 16.7 °C 15.4 °C 1010.4 hPa SSE 6.4 km/h 12.9 km/h 92 % 0 mm 86 W/m2
09:33 16.7 °C 15.4 °C 1010.4 hPa SE 3.2 km/h 9.7 km/h 92 % 0 mm 37 W/m2
09:38 16.7 °C 15.4 °C 1010.4 hPa SSE 6.4 km/h 11.3 km/h 92 % 0 mm 12 W/m2
09:43 16.7 °C 15.4 °C 1010 hPa SE 6.4 km/h 12.9 km/h 92 % 0 mm 70 W/m2
09:48 16.7 °C 15.4 °C 1010.4 hPa East 4.8 km/h 12.9 km/h 92 % 0 mm 11 W/m2
09:53 16.7 °C 15.4 °C 1011.1 hPa SSE 9.7 km/h 22.5 km/h 92 % 0 mm 5 W/m2
09:58 16.8 °C 15.7 °C 1010.4 hPa South 9.7 km/h 22.5 km/h 93 % 4.32 mm 14 W/m2
10:03 16.7 °C 15.6 °C 1010.4 hPa South 6.4 km/h 12.9 km/h 93 % 5.84 mm 35 W/m2
10:08 16.6 °C 15.4 °C 1010.7 hPa South 4.8 km/h 11.3 km/h 93 % 6.1 mm 33 W/m2
10:13 16.6 °C 15.6 °C 1010.4 hPa SE 1.6 km/h 8 km/h 94 % 7.37 mm 72 W/m2
10:18 16.6 °C 15.6 °C 1010.7 hPa Calm   6.4 km/h 94 % 7.37 mm 28 W/m2
10:23 16.6 °C 15.6 °C 1010.7 hPa SSE 1.6 km/h 8 km/h 94 % 7.37 mm 42 W/m2
10:28 16.6 °C 15.8 °C 1010.4 hPa Calm   8 km/h 95 % 7.62 mm 56 W/m2
10:33 16.6 °C 15.8 °C 1010.7 hPa Calm   1.6 km/h 95 % 7.62 mm 76 W/m2
10:38 16.7 °C 15.9 °C 1010.4 hPa Calm     95 % 7.62 mm 105 W/m2
10:43 16.8 °C 16 °C 1010.4 hPa Calm     95 % 7.62 mm 86 W/m2
10:48 16.8 °C 16 °C 1010.7 hPa Calm     95 % 7.62 mm 113 W/m2
10:53 16.9 °C 16.3 °C 1010.7 hPa Calm   1.6 km/h 96 % 6.6 mm 144 W/m2
10:58 17.1 °C 16.4 °C 1010.7 hPa Calm   1.6 km/h 96 % 3.05 mm 211 W/m2
11:03 17.3 °C 16.7 °C 1010.7 hPa Calm   3.2 km/h 96 % 1.78 mm 107 W/m2
11:08 17.3 °C 16.7 °C 1010.7 hPa Calm   3.2 km/h 96 % 1.52 mm 70 W/m2
11:13 17.3 °C 16.7 °C 1010.7 hPa Calm   3.2 km/h 96 % 0.25 mm 72 W/m2
11:18 17.3 °C 16.7 °C 1010.7 hPa Calm   1.6 km/h 96 % 0.25 mm 83 W/m2
11:23 17.4 °C 16.8 °C 1010.4 hPa Calm     96 % 0.25 mm 86 W/m2
11:28 17.5 °C 16.8 °C 1010.4 hPa West 1.6 km/h 14.5 km/h 96 % 0 mm 381 W/m2
11:33 17.7 °C 17.1 °C 1010.7 hPa West 8 km/h 19.3 km/h 96 % 0 mm 223 W/m2
11:38 17.8 °C 17.2 °C 1010.4 hPa WNW 11.3 km/h 19.3 km/h 96 % 0 mm 183 W/m2
11:43 17.8 °C 17.2 °C 1010.7 hPa WNW 9.7 km/h 19.3 km/h 96 % 0 mm 160 W/m2
11:48 17.8 °C 17 °C 1010.7 hPa NW 8 km/h 14.5 km/h 95 % 0 mm 123 W/m2
11:53 17.8 °C 17 °C 1010.7 hPa WNW 8 km/h 12.9 km/h 95 % 0 mm 40 W/m2
11:58 17.7 °C 16.9 °C 1010.7 hPa NW 9.7 km/h 17.7 km/h 95 % 0 mm 37 W/m2
12:03 17.6 °C 16.8 °C 1010.7 hPa NW 8 km/h 17.7 km/h 95 % 0 mm 51 W/m2
12:08 17.4 °C 16.4 °C 1010.7 hPa NW 9.7 km/h 19.3 km/h 94 % 0 mm 77 W/m2
12:13 17.3 °C 16.3 °C 1010.7 hPa NW 8 km/h 19.3 km/h 94 % 0 mm 135 W/m2
12:18 17.3 °C 16.5 °C 1010.7 hPa WNW 6.4 km/h 12.9 km/h 95 % 0 mm 167 W/m2
12:23 17.4 °C 16.4 °C 1010.7 hPa WNW 8 km/h 16.1 km/h 94 % 0 mm 118 W/m2
12:28 17.3 °C 16.3 °C 1011.1 hPa WNW 11.3 km/h 22.5 km/h 94 % 0 mm 134 W/m2
12:33 17.3 °C 16.2 °C 1011.1 hPa WNW 12.9 km/h 22.5 km/h 93 % 0 mm 121 W/m2
12:38 17.3 °C 16.2 °C 1010.7 hPa WNW 11.3 km/h 19.3 km/h 93 % 0 mm 352 W/m2
12:43 17.5 °C 16.5 °C 1010.7 hPa WNW 9.7 km/h 16.1 km/h 94 % 0 mm 543 W/m2
12:48 17.9 °C 16.9 °C 1010.7 hPa West 8 km/h 14.5 km/h 94 % 0 mm 573 W/m2
12:54 18.3 °C 17.2 °C 1010.7 hPa WNW 8 km/h 16.1 km/h 93 % 0 mm 851 W/m2
12:59 18.8 °C 17.3 °C 1010.7 hPa WNW 11.3 km/h 19.3 km/h 91 % 0 mm 940 W/m2
13:04 19.3 °C 17.1 °C 1010.7 hPa WNW 12.9 km/h 24.1 km/h 87 % 0 mm 940 W/m2
13:09 19.7 °C 17.1 °C 1010.7 hPa WNW 14.5 km/h 24.1 km/h 85 % 0 mm 812 W/m2
13:14 20.1 °C 17.3 °C 1010.7 hPa WNW 12.9 km/h 24.1 km/h 84 % 0 mm 749 W/m2
13:19 20.4 °C 17.2 °C 1010.7 hPa WNW 11.3 km/h 20.9 km/h 82 % 0 mm 605 W/m2
13:24 20.6 °C 17.2 °C 1010.7 hPa WNW 11.3 km/h 20.9 km/h 81 % 0 mm 596 W/m2
13:29 20.8 °C 17 °C 1010.7 hPa WNW 9.7 km/h 22.5 km/h 79 % 0 mm 406 W/m2
13:34 20.8 °C 16.4 °C 1011.1 hPa West 11.3 km/h 24.1 km/h 76 % 0 mm 408 W/m2
13:39 20.7 °C 16.1 °C 1011.1 hPa West 14.5 km/h 29 km/h 75 % 0 mm 269 W/m2
13:44 20.4 °C 15.4 °C 1011.1 hPa WNW 14.5 km/h 29 km/h 73 % 0 mm 338 W/m2
13:49 20.4 °C 15.6 °C 1011.1 hPa WNW 14.5 km/h 22.5 km/h 74 % 0 mm 445 W/m2
13:54 20.4 °C 15.6 °C 1011.1 hPa WNW 12.9 km/h 22.5 km/h 74 % 0 mm 601 W/m2
13:59 20.6 °C 15.4 °C 1011.1 hPa WNW 12.9 km/h 24.1 km/h 72 % 0 mm 353 W/m2
14:04 20.7 °C 15.3 °C 1011.1 hPa WNW 14.5 km/h 24.1 km/h 71 % 0 mm 531 W/m2
14:09 20.7 °C 15.1 °C 1011.1 hPa WNW 14.5 km/h 24.1 km/h 70 % 0 mm 374 W/m2
14:14 20.8 °C 15.3 °C 1011.1 hPa WNW 11.3 km/h 24.1 km/h 71 % 0 mm 485 W/m2
14:19 20.9 °C 15 °C 1011.1 hPa WNW 11.3 km/h 20.9 km/h 69 % 0 mm 396 W/m2
14:24 20.9 °C 14.6 °C 1011.1 hPa WNW 12.9 km/h 20.9 km/h 67 % 0 mm 494 W/m2
14:29 21 °C 15.1 °C 1011.1 hPa WNW 9.7 km/h 17.7 km/h 69 % 0 mm 239 W/m2
14:34 21.1 °C 14.9 °C 1011.1 hPa West 9.7 km/h 20.9 km/h 68 % 0 mm 301 W/m2
14:35 21.1 °C 14.9 °C 1011.1 hPa West 9.7 km/h 20.9 km/h 68 % 0 mm 301 W/m2
14:40 21.1 °C 15.2 °C 1011.1 hPa West 11.3 km/h 24.1 km/h 69 % 0 mm 285 W/m2
14:45 21.2 °C 15.1 °C 1011.1 hPa WNW 12.9 km/h 24.1 km/h 68 % 0 mm 814 W/m2
14:50 21.3 °C 15.2 °C 1011.1 hPa WNW 12.9 km/h 22.5 km/h 68 % 0 mm 278 W/m2
14:55 21.3 °C 14.9 °C 1011.1 hPa WNW 12.9 km/h 24.1 km/h 67 % 0 mm 413 W/m2
15:00 21.2 °C 14.6 °C 1011.1 hPa NW 12.9 km/h 24.1 km/h 66 % 0 mm 265 W/m2
15:05 21.2 °C 14.6 °C 1011.1 hPa WNW 12.9 km/h 24.1 km/h 66 % 0 mm 241 W/m2
15:10 21.1 °C 14.5 °C 1011.4 hPa WNW 12.9 km/h 24.1 km/h 66 % 0 mm 348 W/m2
15:15 21.1 °C 14.5 °C 1011.1 hPa West 12.9 km/h 24.1 km/h 66 % 0 mm 373 W/m2
15:20 21.3 °C 14.4 °C 1011.4 hPa WNW 12.9 km/h 20.9 km/h 65 % 0 mm 336 W/m2
15:25 21.5 °C 14.7 °C 1011.4 hPa WNW 14.5 km/h 24.1 km/h 65 % 0 mm 279 W/m2
15:30 21.4 °C 14.3 °C 1011.4 hPa WNW 14.5 km/h 24.1 km/h 64 % 0 mm 302 W/m2
15:35 21.3 °C 14.2 °C 1011.4 hPa WNW 12.9 km/h 20.9 km/h 64 % 0 mm 381 W/m2
15:40 21.4 °C 14.6 °C 1011.4 hPa WNW 14.5 km/h 22.5 km/h 65 % 0 mm 700 W/m2
15:45 21.7 °C 14.3 °C 1011.1 hPa WNW 14.5 km/h 22.5 km/h 63 % 0 mm 738 W/m2
15:50 21.8 °C 14.4 °C 1011.4 hPa WNW 14.5 km/h 22.5 km/h 63 % 0 mm 246 W/m2
15:55 21.7 °C 14.3 °C 1011.4 hPa WNW 12.9 km/h 22.5 km/h 63 % 0 mm 315 W/m2
16:00 21.6 °C 14.5 °C 1011.4 hPa WNW 11.3 km/h 19.3 km/h 64 % 0 mm 341 W/m2
16:05 21.4 °C 13.8 °C 1011.4 hPa WNW 14.5 km/h 29 km/h 62 % 0 mm 649 W/m2
16:10 21.5 °C 14.2 °C 1011.4 hPa WNW 16.1 km/h 29 km/h 63 % 0 mm 244 W/m2
16:15 21.4 °C 14.1 °C 1011.4 hPa WNW 14.5 km/h 22.5 km/h 63 % 0 mm 285 W/m2
16:20 21.3 °C 13.9 °C 1011.4 hPa WNW 12.9 km/h 25.7 km/h 63 % 0 mm 376 W/m2
16:25 21.4 °C 14.3 °C 1011.4 hPa WNW 12.9 km/h 25.7 km/h 64 % 0 mm 606 W/m2
16:30 21.5 °C 14.2 °C 1011.1 hPa WNW 11.3 km/h 20.9 km/h 63 % 0 mm 230 W/m2
16:35 21.5 °C 14.4 °C 1011.4 hPa WNW 9.7 km/h 19.3 km/h 64 % 0 mm 276 W/m2
16:40 21.6 °C 14.3 °C 1011.4 hPa WNW 12.9 km/h 29 km/h 63 % 0 mm 591 W/m2
16:45 21.5 °C 14.2 °C 1011.4 hPa WNW 14.5 km/h 29 km/h 63 % 0 mm 167 W/m2
16:50 21.2 °C 13.9 °C 1011.4 hPa WNW 14.5 km/h 22.5 km/h 63 % 0 mm 163 W/m2
16:55 21 °C 13.9 °C 1011.4 hPa WNW 14.5 km/h 22.5 km/h 64 % 0 mm 148 W/m2
17:00 20.8 °C 14 °C 1011.4 hPa WNW 14.5 km/h 22.5 km/h 65 % 0 mm 225 W/m2
17:05 20.8 °C 14 °C 1011.4 hPa WNW 14.5 km/h 20.9 km/h 65 % 0 mm 171 W/m2
17:10 20.7 °C 14.1 °C 1011.4 hPa WNW 14.5 km/h 20.9 km/h 66 % 0 mm 135 W/m2
17:15 20.4 °C 14.1 °C 1011.4 hPa WNW 12.9 km/h 20.9 km/h 67 % 0 mm 160 W/m2
17:20 20.3 °C 14.2 °C 1011.4 hPa WNW 11.3 km/h 17.7 km/h 68 % 0 mm 139 W/m2
17:25 20.2 °C 14.1 °C 1011.4 hPa WNW 11.3 km/h 20.9 km/h 68 % 0 mm 116 W/m2
17:30 20 °C 13.9 °C 1011.4 hPa West 12.9 km/h 20.9 km/h 68 % 0 mm 158 W/m2
17:31 20 °C 13.9 °C 1011.4 hPa West 12.9 km/h 20.9 km/h 68 % 0 mm 174 W/m2
17:36 19.9 °C 14.1 °C 1011.4 hPa West 12.9 km/h 22.5 km/h 69 % 0 mm 468 W/m2
17:41 20.1 °C 14.2 °C 1011.4 hPa West 11.3 km/h 22.5 km/h 69 % 0 mm 199 W/m2
17:46 20.2 °C 14.1 °C 1011.4 hPa West 11.3 km/h 22.5 km/h 68 % 0 mm 127 W/m2
17:51 20.1 °C 14 °C 1011.4 hPa West 12.9 km/h 22.5 km/h 68 % 0 mm 120 W/m2
17:56 19.9 °C 13.8 °C 1011.4 hPa West 11.3 km/h 19.3 km/h 68 % 0 mm 123 W/m2
18:01 19.9 °C 14.1 °C 1011.4 hPa West 9.7 km/h 19.3 km/h 69 % 0 mm 139 W/m2
18:06 19.8 °C 13.9 °C 1011.4 hPa West 11.3 km/h 20.9 km/h 69 % 0 mm 195 W/m2
18:11 19.9 °C 14.1 °C 1011.4 hPa WNW 11.3 km/h 20.9 km/h 69 % 0 mm 323 W/m2
18:16 20.2 °C 14.1 °C 1011.4 hPa WNW 11.3 km/h 19.3 km/h 68 % 0 mm 227 W/m2
18:21 20.1 °C 13.8 °C 1011.4 hPa West 12.9 km/h 22.5 km/h 67 % 0 mm 83 W/m2
18:26 19.8 °C 13.7 °C 1011.4 hPa West 12.9 km/h 22.5 km/h 68 % 0 mm 72 W/m2
18:31 19.7 °C 14.1 °C 1011.4 hPa West 9.7 km/h 17.7 km/h 70 % 0 mm 100 W/m2
18:36 19.7 °C 14.1 °C 1011.4 hPa West 8 km/h 16.1 km/h 70 % 0 mm 230 W/m2
18:41 19.8 °C 13.9 °C 1011.4 hPa West 9.7 km/h 19.3 km/h 69 % 0 mm 183 W/m2
18:46 19.8 °C 13.5 °C 1011.4 hPa West 12.9 km/h 22.5 km/h 67 % 0 mm 100 W/m2
18:51 19.7 °C 13.2 °C 1011.4 hPa West 12.9 km/h 22.5 km/h 66 % 0 mm 130 W/m2
18:56 19.6 °C 13.1 °C 1011.4 hPa WSW 11.3 km/h 17.7 km/h 66 % 0 mm 121 W/m2
19:01 19.4 °C 13.1 °C 1011.4 hPa WSW 9.7 km/h 16.1 km/h 67 % 0 mm 109 W/m2
19:06 19.4 °C 13.3 °C 1011.4 hPa WSW 9.7 km/h 14.5 km/h 68 % 0 mm 93 W/m2
19:11 19.3 °C 13.2 °C 1011.4 hPa WSW 9.7 km/h 16.1 km/h 68 % 0 mm 84 W/m2
19:16 19.1 °C 13.3 °C 1011.4 hPa WSW 9.7 km/h 16.1 km/h 69 % 0 mm 42 W/m2
19:21 18.9 °C 13.3 °C 1011.4 hPa WSW 8 km/h 14.5 km/h 70 % 0 mm 69 W/m2
19:31 18.7 °C 13.3 °C 1011.4 hPa West 6.4 km/h 12.9 km/h 71 % 0 mm 42 W/m2
19:36 18.5 °C 13.3 °C 1011.4 hPa West 6.4 km/h 11.3 km/h 72 % 0 mm 25 W/m2
19:41 18.4 °C 13.4 °C 1011.4 hPa WSW 4.8 km/h 9.7 km/h 73 % 0 mm 21 W/m2
19:46 18.2 °C 13.3 °C 1011.7 hPa WSW 6.4 km/h 12.9 km/h 73 % 0 mm 18 W/m2
19:51 18.1 °C 13.4 °C 1011.4 hPa WSW 4.8 km/h 12.9 km/h 74 % 0 mm 14 W/m2
19:56 17.9 °C 13.2 °C 1011.4 hPa WSW 1.6 km/h 8 km/h 74 % 0 mm 11 W/m2
20:01 17.8 °C 13.3 °C 1011.4 hPa WSW 1.6 km/h 6.4 km/h 75 % 0 mm 7 W/m2
20:06 17.6 °C 13.3 °C 1011.4 hPa Calm   4.8 km/h 76 % 0 mm 5 W/m2
20:11 17.4 °C 13.1 °C 1011.4 hPa WSW 1.6 km/h 4.8 km/h 76 % 0 mm 0 W/m2
20:16 17.2 °C 13.1 °C 1011.7 hPa WSW 1.6 km/h 6.4 km/h 77 % 0 mm 0 W/m2
20:21 17 °C 13.1 °C 1011.7 hPa WSW 4.8 km/h 8 km/h 78 % 0 mm 0 W/m2
20:26 16.8 °C 13.1 °C 1011.7 hPa WSW 3.2 km/h 9.7 km/h 79 % 0 mm 0 W/m2
20:31 16.6 °C 12.9 °C 1011.7 hPa WSW 3.2 km/h 9.7 km/h 79 % 0 mm 0 W/m2
20:36 16.4 °C 12.9 °C 1011.7 hPa WSW 1.6 km/h 8 km/h 80 % 0 mm 0 W/m2
20:41 16.2 °C 12.7 °C 1011.7 hPa WSW 1.6 km/h 6.4 km/h 80 % 0 mm 0 W/m2
20:46 16.1 °C 12.8 °C 1012.1 hPa WSW 1.6 km/h 6.4 km/h 81 % 0 mm 0 W/m2
20:51 15.9 °C 12.7 °C 1012.1 hPa Calm   4.8 km/h 81 % 0 mm 0 W/m2
20:56 15.8 °C 12.7 °C 1012.1 hPa WSW 1.6 km/h 8 km/h 82 % 0 mm 0 W/m2
21:02 15.6 °C 12.7 °C 1012.1 hPa West 4.8 km/h 12.9 km/h 83 % 0 mm 0 W/m2
21:07 15.5 °C 12.8 °C 1012.1 hPa WNW 8 km/h 12.9 km/h 84 % 0 mm 0 W/m2
21:12 15.5 °C 12.8 °C 1012.1 hPa WNW 8 km/h 12.9 km/h 84 % 0 mm 0 W/m2
21:17 15.4 °C 12.7 °C 1012.1 hPa West 6.4 km/h 12.9 km/h 84 % 0 mm 0 W/m2
21:22 15.3 °C 12.8 °C 1012.1 hPa West 6.4 km/h 9.7 km/h 85 % 0 mm 0 W/m2
21:27 15.2 °C 12.7 °C 1012.4 hPa West 6.4 km/h 9.7 km/h 85 % 0 mm 0 W/m2
21:32 15.1 °C 12.6 °C 1012.4 hPa West 4.8 km/h 9.7 km/h 85 % 0 mm 0 W/m2
21:37 14.9 °C 12.6 °C 1012.4 hPa West 6.4 km/h 12.9 km/h 86 % 0 mm 0 W/m2
21:42 14.8 °C 12.5 °C 1012.4 hPa West 8 km/h 12.9 km/h 86 % 0 mm 0 W/m2
21:47 14.7 °C 12.4 °C 1012.4 hPa West 8 km/h 11.3 km/h 86 % 0 mm 0 W/m2
21:52 14.7 °C 12.4 °C 1012.4 hPa West 6.4 km/h 11.3 km/h 86 % 0 mm 0 W/m2
21:57 14.7 °C 12.4 °C 1012.4 hPa West 4.8 km/h 11.3 km/h 86 % 0 mm 0 W/m2
22:02 14.6 °C 12.3 °C 1012.4 hPa West 3.2 km/h 8 km/h 86 % 0 mm 0 W/m2
22:07 14.5 °C 12.2 °C 1012.4 hPa West 3.2 km/h 8 km/h 86 % 0 mm 0 W/m2
22:12 14.4 °C 12.3 °C 1012.4 hPa WNW 4.8 km/h 11.3 km/h 87 % 0 mm 0 W/m2
22:17 14.4 °C 12.3 °C 1012.4 hPa WNW 6.4 km/h 11.3 km/h 87 % 0 mm 0 W/m2
22:22 14.4 °C 12.3 °C 1012.4 hPa WNW 6.4 km/h 9.7 km/h 87 % 0 mm 0 W/m2
22:27 14.4 °C 12.1 °C 1012.4 hPa WNW 3.2 km/h 9.7 km/h 86 % 0 mm 0 W/m2
22:32 14.4 °C 12.1 °C 1012.4 hPa WNW 1.6 km/h 6.4 km/h 86 % 0 mm 0 W/m2
22:37 14.3 °C 12 °C 1012.4 hPa Calm   3.2 km/h 86 % 0 mm 0 W/m2
22:42 14.2 °C 11.9 °C 1012.4 hPa Calm   8 km/h 86 % 0 mm 0 W/m2
22:47 14.1 °C 11.8 °C 1012.4 hPa Calm   8 km/h 86 % 0 mm 0 W/m2
22:52 14.1 °C 11.9 °C 1012.4 hPa Calm   3.2 km/h 87 % 0 mm 0 W/m2
22:57 14 °C 11.9 °C 1012.4 hPa Calm   8 km/h 87 % 0 mm 0 W/m2
23:02 13.9 °C 11.8 °C 1012.8 hPa Calm   8 km/h 87 % 0 mm 0 W/m2
23:07 13.8 °C 11.7 °C 1012.8 hPa NE 1.6 km/h 6.4 km/h 87 % 0 mm 0 W/m2
23:12 13.8 °C 11.7 °C 1012.8 hPa ENE 1.6 km/h 6.4 km/h 87 % 0 mm 0 W/m2
23:17 13.8 °C 11.7 °C 1012.8 hPa ENE 1.6 km/h 4.8 km/h 87 % 0 mm 0 W/m2
23:22 13.8 °C 11.7 °C 1012.8 hPa Calm   3.2 km/h 87 % 0 mm 0 W/m2
23:27 13.7 °C 11.6 °C 1012.8 hPa Calm   8 km/h 87 % 0 mm 0 W/m2
23:32 13.7 °C 11.7 °C 1012.8 hPa ENE 1.6 km/h 8 km/h 88 % 0 mm 0 W/m2
23:37 13.6 °C 11.7 °C 1012.8 hPa ENE 1.6 km/h 8 km/h 88 % 0 mm 0 W/m2
23:42 13.5 °C 11.6 °C 1012.8 hPa Calm   3.2 km/h 88 % 0 mm 0 W/m2
23:47 13.5 °C 11.6 °C 1012.8 hPa NNE 1.6 km/h 8 km/h 88 % 0 mm 0 W/m2
23:53 13.5 °C 11.6 °C 1012.8 hPa NE 1.6 km/h 8 km/h 88 % 0 mm 0 W/m2
23:58 13.5 °C 11.6 °C 1012.8 hPa Calm   8 km/h 88 % 0 mm 0 W/m2
Delerius-Weather
Compliments of Weather Underground - 2.25 mb

Data updates at regular intervals.